This is the latest recevied weather packets stored in our database for station/object N5ATR. If no packets are shown the sender has not sent any weather packets the latest 10 day(s).
| Time | Temp. | Humidity | Pressure | Rain* | Wind** | Luminosity | Snow |
|---|---|---|---|---|---|---|---|
| 1788555081 | 26.67° C | 39% | 1021.9 hPa | 0 mm | - | 618 W/m² | - |
| 1788554776 | 27.22° C | 39% | 1021.9 hPa | 0 mm | - | 628 W/m² | - |
| 1788554472 | 26.67° C | 39% | 1021.9 hPa | 0 mm | - | 638 W/m² | - |
| 1788554168 | 26.67° C | 39% | 1021.7 hPa | 0 mm | - | 656 W/m² | - |
| 1788553865 | 27.22° C | 39% | 1021.9 hPa | 0 mm | - | 636 W/m² | - |
| 1788553560 | 26.67° C | 39% | 1021.9 hPa | 0 mm | - | 675 W/m² | - |
| 1788553257 | 26.67° C | 40% | 1021.9 hPa | 0 mm | - | 692 W/m² | - |
| 1788552956 | 26.11° C | 42% | 1022.2 hPa | 0 mm | - | 753 W/m² | - |
| 1788552651 | 26.67° C | 43% | 1022.2 hPa | 0 mm | - | 600 W/m² | - |
| 1788552350 | 26.11° C | 44% | 1022.3 hPa | 0 mm | - | 754 W/m² | - |
| 1788552045 | 26.67° C | 42% | 1022.3 hPa | 0 mm | - | 787 W/m² | - |
| 1788551744 | 25° C | 46% | 1022.2 hPa | 0 mm | - | 883 W/m² | - |
| 1788551444 | 26.11° C | 45% | 1022.3 hPa | 0 mm | - | 623 W/m² | - |
| 1788551138 | 25° C | 45% | 1022.5 hPa | 0 mm | - | 504 W/m² | - |
| 1788550834 | 25° C | 46% | 1022.4 hPa | 0 mm | - | 362 W/m² | - |
| 1788550534 | 24.44° C | 48% | 1022.6 hPa | 0 mm | - | 396 W/m² | - |
| 1788550231 | 24.44° C | 48% | 1022.5 hPa | 0 mm | - | 391 W/m² | - |
| 1788549929 | 24.44° C | 49% | 1022.5 hPa | 0 mm | - | 296 W/m² | - |
| 1788549626 | 23.89° C | 49% | 1022.9 hPa | 0 mm | - | 265 W/m² | - |
| 1788549322 | 23.89° C | 48% | 1022.5 hPa | 0 mm | - | 214 W/m² | - |
| 1788549019 | 25° C | 47% | 1022.8 hPa | 0 mm | - | 199 W/m² | - |
| 1788548714 | 25° C | 48% | 1022.5 hPa | 0 mm | - | 247 W/m² | - |
| 1788548410 | 24.44° C | 48% | 1022.6 hPa | 0 mm | - | 525 W/m² | - |
| 1788548106 | 23.89° C | 50% | 1022.9 hPa | 0 mm | - | 423 W/m² | - |
| 1788547801 | 23.89° C | 50% | 1023.3 hPa | 0 mm | - | 294 W/m² | - |
* Rain latest hour (hover to see other rain measurements)
** Current wind speed in m/s (hover to see current wind gust speed)